JILIN-01 GAOFEN 2A (44777 NORAD) Tracking and Keplerian Element Data

This shows tracking and keplerian element data for the satellite.

Feedback or suggestion? Click here.




ElementValue
Catalog44777
NameJILIN-01 GAOFEN 2A
Epoch Orbit1072
Epoch Day23.22584458
Epoch Year2020
RAAN91.7507
Inclination97.5306
Eccentricity0.0013154
Argument of Perigee27.2877
Mean Anonmoly58.3233
Mean Motion15.09131917
Decay Rate-2.41E-06
L11 44777U 19075A 20023.22584458 -.00000241 00000-0 -11202-4 0 9995
L22 44777 97.5306 91.7507 0013154 27.2877 58.3233 15.09131917 10728

Live tracking and technical data element details for JILIN-01 GAOFEN 2A (NORAD 44777). JILIN-01 GAOFEN 2A can be tracked NOW for your location showing map with azimuth and elevation plus other details from your city location.

Track the satellite on the map from your city or location and see movement details for azimuth, elevation, latitude, longitude, range, height, and movement on the map or in text.







IsCatalogInMostPopularTable: catalog: 44777, numindb: 14
Update: records affected: 1



GetName: 44777 JILIN-01 GAOFEN 2A

Hit Count: updated at: Fri, 24 Jan 2020 10:26:45 GMT